Regional Weather Roundup
Issued by NWS

Home | Current Version | Previous Version | Text Only | Print | Product List | Glossary Off
Versions: 1 2 3 4 5 6 7 8 9 10 11 12 13 14 15 16 17 18 19 20 21 22 23 24 25 26 27 28 29 30 31 32 33 34 35 36 37 38 39 40 41 42 43 44 45 46 47 48 49 50

000
ASUS43 KFSD 091210
RWRSD

WEATHER ROUNDUP FOR SOUTH DAKOTA
NATIONAL WEATHER SERVICE SIOUX FALLS SD
700 AM CDT WED JUL 09 2014

NOTE: "FAIR" INDICATES FEW OR NO CLOUDS BELOW 12,000 FEET WITH NO
SIGNIFICANT WEATHER AND/OR OBSTRUCTIONS TO VISIBILITY.


SDZ001>005-009-010-012>017-091300-
NORTHWEST AND NORTH CENTRAL SOUTH DAKOTA

CITY           SKY/WX    TMP DP  RH WIND       PRES   REMARKS
BUFFALO          N/A     56  51  84 E6        30.00S
FAITH            N/A     58  52  80 SE3       30.06S
MOBRIDGE       CLEAR     57  56  96 N8        30.02S FOG
$$

SDZ012>016-024>037-041>051-057-063-072>074-091300-
SOUTHWEST AND SOUTH CENTRAL SOUTH DAKOTA

CITY           SKY/WX    TMP DP  RH WIND       PRES   REMARKS
RAPID CTY ARPT MOCLDY    58  52  80 CALM      30.07F
PIERRE         CLEAR     56  54  93 SW6       30.04R
CUSTER         CLEAR     49  45  86 NE3       30.17F
ELLSWORTH AFB  MOCLDY    60  52  76 S2        30.07F
PHILIP         MOCLDY    53  50  89 W3        30.06S
PINE RIDGE     PTCLDY    61  50  67 SE10      30.07F
WINNER         FAIR      57  52  83 SW5       30.06S
$$

SDZ004>011-016>023-039-040-091300-
NORTHEAST SOUTH DAKOTA

CITY           SKY/WX    TMP DP  RH WIND       PRES   REMARKS
ABERDEEN       CLEAR     56  55  97 N5        30.02S FOG
WATERTOWN      CLEAR     57  55  93 CALM      30.02R
SISSETON         N/A     60  57  89 N8        30.00R
$$

SDZ017-020-022-023-036>040-048>070-091300-
SOUTHEAST SOUTH DAKOTA

CITY           SKY/WX    TMP DP  RH WIND       PRES   REMARKS
SIOUX FALLS    MOCLDY    59  56  89 CALM      30.04R
HURON          CLEAR     56  53  90 CALM      30.03R FOG
CHAMBERLAIN    CLEAR     56  54  92 W3        30.05S
MITCHELL       CLEAR     59  54  83 CALM      30.04R
YANKTON        CLEAR     55  54  94 NW5       30.05S
$$

ABBREVIATIONS USED IN REMARKS
   TC - TEMPERATURE IN CELSIUS
  WCI - WIND CHILL INDEX
   HX - HEAT INDEX
  VSB - VISIBILITY



USA.gov is the U.S. government's official web portal to all federal, state and local government web resources and services.